Location: Stockholm
(59.3333°N, 18.0500°E)
Time: 11:49:26
(UTC+02:00)

Lacrosse 5 - Pass Details

Date: 10 May 2020
Orbit: 714 x 723 km, 57.0° (Epoch: 08 June)

Event Time Altitude Azimuth Distance (km) Brightness Sun altitude
Rises 00:47:10 0° 264° (W) 3,119 5.1 -13.0°
Reaches altitude 10° 00:49:33 10° 262° (W) 2,199 4.3 -13.0°
Maximum altitude 00:54:35 69° 181° (S) 767 1.8 -13.0°
Drops below altitude 10° 00:59:37 10° 98° (E) 2,201 4.3 -12.9°
Sets 01:02:00 0° 96° (E) 3,122 5.1 -12.9°
